Regional Weather Roundup
Issued by NWS

Home | Current Version | Previous Version | Text Only | Print | Product List | Glossary Off
Versions: 1 2 3 4 5 6 7 8 9 10 11 12 13 14 15 16 17 18 19 20 21 22 23 24 25 26 27 28 29 30 31 32 33 34 35 36 37 38 39 40 41 42 43 44 45 46 47 48 49 50

101
ASUS43 KLSX 301210
RWRMO

WEATHER SUMMARY FOR MISSOURI
NATIONAL WEATHER SERVICE SPRINGFIELD MO
700 AM CDT FRI SEP 30 2016

NOTE: "FAIR" INDICATES FEW OR NO CLOUDS BELOW 12,000 FEET WITH NO
       SIGNIFICANT WEATHER AND/OR OBSTRUCTIONS TO VISIBILITY.
       CURRENT SKY AND/OR WEATHER CONDITIONS ARE NOT AVAILABLE FOR
       CHILLICOTHE AND FARMINGTON.

MOZ001>031-035>038-043-044-053-054-301300-
...NORTHERN AND WESTERN MISSOURI...

CITY           SKY/WX    TMP DP  RH WIND       PRES   REMARKS
KANSAS CTY INT CLEAR     49  45  86 N7        30.25R
6HR MIN TEMP:  49; 6HR MAX TEMP:  55;

KANSAS C DTWN  CLEAR     53  49  86 NW3       30.24S
6HR MIN TEMP:  52; 6HR MAX TEMP:  58;

LEE`S SUMMIT   CLEAR     50  48  93 CALM      30.24S
6HR MIN TEMP:  49; 6HR MAX TEMP:  56;

ST JOSEPH      CLEAR     46  45  96 N6        30.26S
6HR MIN TEMP:  46; 6HR MAX TEMP:  52;

CHILLICOTHE      N/A     52  49  89 N3        30.24S
6HR MIN TEMP:  52; 6HR MAX TEMP:  58;

KIRKSVILLE     CLEAR     51  48  89 N6        30.22S
6HR MIN TEMP:  51; 6HR MAX TEMP:  55;


$$
MOZ066>068-077>081-088>096-101>105-301300-
...SOUTHWEST MISSOURI...

CITY           SKY/WX    TMP DP  RH WIND       PRES   REMARKS
SPRINGFIELD    CLEAR     49  46  90 NW5       30.20R
6HR MIN TEMP:  49; 6HR MAX TEMP:  56;

JOPLIN         CLEAR     47  46  97 CALM      30.22S
6HR MIN TEMP:  47; 6HR MAX TEMP:  51;

BRANSON        CLEAR     50  48  93 CALM      30.20R

$$
MOZ032>034-039>042-045>050-055>058-069>072-301300-
...CENTRAL MISSOURI...

CITY           SKY/WX    TMP DP  RH WIND       PRES   REMARKS
COLUMBIA       CLOUDY    56  53  90 N7        30.18F
6HR MIN TEMP:  52; 6HR MAX TEMP:  60;

JEFFERSON CITY MOCLDY    56  53  90 NW3       30.17F
6HR MIN TEMP:  54; 6HR MAX TEMP:  63;

ROLLA          PTCLDY    53  52  96 NW6       30.15F
6HR MIN TEMP:  53; 6HR MAX TEMP:  60;

SEDALIA        CLEAR     50  48  93 NW6       30.21S
6HR MIN TEMP:  50; 6HR MAX TEMP:  56;

WHITEMAN AFB   CLEAR     50  50  99 N3        30.21R
OSAGE BEACH    CLEAR     52  51  97 CALM      30.20S

$$
MOZ051-052-059>065-301300-
...EAST CENTRAL MISSOURI...

CITY           SKY/WX    TMP DP  RH WIND       PRES   REMARKS
ST LOUIS INTL  CLOUDY    62  56  80 NW9       30.12S
6HR MIN TEMP:  61; 6HR MAX TEMP:  63; 6HR PCP: TRACE;

SPIRIT OF STL  CLOUDY    62  57  83 NW8       30.12S
6HR MIN TEMP:  62; 6HR MAX TEMP:  63;

ST CHARLES     CLOUDY    61  58  90 NW8       30.12S
6HR MIN TEMP:  61; 6HR MAX TEMP:  62;


$$
MOZ072>076-082>087-097>100-106>115-301300-
...SOUTH CENTRAL AND SOUTHEAST MISSOURI...

CITY           SKY/WX    TMP DP  RH WIND       PRES   REMARKS
CAPE GIRARDEAU CLOUDY    60  57  89 NW5       30.08S
6HR MIN TEMP:  55; 6HR MAX TEMP:  60;

FARMINGTON     MOCLDY    58  56  93 NW6       30.12S
6HR MIN TEMP:  58; 6HR MAX TEMP:  60; 6HR PCP: TRACE;

POPLAR BLUFF   CLEAR     55  55 100 NW5       30.09F
6HR MIN TEMP:  54; 6HR MAX TEMP:  61;

WEST PLAINS    PTCLDY    56  51  84 NW6       30.17S
6HR MIN TEMP:  54; 6HR MAX TEMP:  59;


$$




USA.gov is the U.S. government's official web portal to all federal, state and local government web resources and services.